Location: Newark
(57.7279°N, 5.6916°W)
Time: 04:31:10
(UTC+00:00)

N. Korean satellite - Pass Details

Date: 11 December 2019
Orbit: 454 x 507 km, 97.2° (Epoch: 22 January)

Event Time Altitude Azimuth Distance (km) Brightness Sun altitude
Rises 06:05:26 0° 18° (NNE) 2,570 10.3 -20.6°
Reaches altitude 10° 06:07:36 10° 25° (NNE) 1,675 9.4 -20.3°
Maximum altitude 06:11:04 45° 99° (E) 667 7.7 -19.9°
Drops below altitude 10° 06:14:27 10° 173° (S) 1,631 9.5 -19.4°
Sets 06:16:32 0° 180° (S) 2,495 10.3 -19.2°
